Погода в Кузомени

Россия / Архангельская область     64°16′28″N   42°56′40″E
темп.,
°C
ветер,
м/с
пор.,
м/с
влажн.,
%
обл.,
%
осадки,
мм/ч
давл.,
гПа
погр.,
м
25 июля, вс
вс2500:00+10зюз3968100 0.0 1009542
03:00+9зюз397396 0.0 1010320
06:00+10зюз3970100 0.0 1010331
09:00+14зюз51059100 0.0 1010787
12:00+15з597095 0.4 10101163
15:00+16з5107063 2.1 10111648
18:00+17зсз58455 0.4 10111782
21:00+10ссз22715 0.4 101343
26 июля, пн
пн2600:00+6юв11895 0.0 101410
03:00+6ююз239185 0.0 101443
06:00+9юз378392 0.1 1014229
09:00+11з3685100 0.3 1014327
12:00+15зсз375862 0.1 10141589
15:00+14сз485173 0.2 10151520
18:00+14ссз574712 0.0 10161519
21:00+9сз38635 0.0 1017416
27 июля, вт
вт2700:00+9зсз31071100 0.0 1018600
03:00+9зсз4107661 0.0 1018608
06:00+10сз410745 0.0 1018652
09:00+15сз595634 0.0 10171316
12:00+18ссз69375 0.0 10161947
15:00+19ссз69315 0.0 10162095
18:00+18ссз48375 0.0 10161790
21:00+11с23625 0.0 101643
28 июля, ср
ср2800:00+6ссв11846 0.0 101710
03:00+5юз119373 0.0 101610
06:00+9юз2470100 0.0 1013204
09:00+11ю2469100 0.1 1011297
12:00+11ююв1194100 1.5 100958
15:00+17ссз127097 1.6 1007729
18:00+15св347689 0.0 1006513
21:00+11вюв22965 0.0 100619
29 июля, чт
чт2900:00+8всв229831 0.0 100739
03:00+7всв119899 0.0 100611
06:00+10в2491100 0.0 1005193
09:00+14юв3464100 0.0 1004578
12:00+17юв3453100 0.0 1002790
15:00+21ю3542100 0.0 10001543
18:00+21ююв4551100 0.0 9981046
21:00+14вюв2499100 7.2 997109